Weather History for KNEW - August, 2013

Change the Weather History Date:

Friday, August 23, 2013

  Actual Average Record
Temperature  
Mean Temperature 83 °F 83 °F  
Max Temperature 88 °F 91 °F 99 °F (2011)
Min Temperature 78 °F 75 °F 62 °F (1956)
Degree Days  
Heating Degree Days 0 0  
Month to date heating degree days 0 0  
Since 1 June heating degree days 0 0  
Since 1 July heating degree days 0 0  
Cooling Degree Days 18 18  
Month to date cooling degree days 433 414  
Year to date cooling degree days 2013 2094  
Since 1 June cooling degree days 1520 1475  
Growing Degree Days 34 (Base 50)    
Moisture  
Dew Point 74 °F    
Average Humidity 78    
Maximum Humidity 91    
Minimum Humidity 65    
Precipitation  
Precipitation T in 0.19 in 1.10 in (1954)
Month to date precipitation 6.44 4.47  
Year to date precipitation 49.53 42.70  
Snow  
Snow 0.00 in - - ()
Month to date snowfall 0.0  
Since 1 June snowfall 0.0  
Since 1 July snowfall 0.0  
Snow Depth 0.00 in    
Sea Level Pressure  
Sea Level Pressure 29.96 in    
Wind  
Wind Speed 8 mph (East)    
Max Wind Speed 21 mph    
Max Gust Speed 25 mph    
Visibility 10 miles    
Events Rain    
T = Trace of Precipitation, MM = Missing Value Source: NWS Daily Summary

Daily Weather History Graph

Daily Weather History Graph

Search for Another Location

Airport or City:

Trip Planner

Search our weather history database for the weather conditions in past years. The results will help you decide how hot, cold, wet, or windy it might be!

Date:

Astronomy

Aug. 23, 2013 Rise Set
Actual Time 6:32 AM CDT 7:32 PM CDT
Civil Twilight 6:07 AM CDT 7:57 PM CDT
Nautical Twilight 5:38 AM CDT 8:26 PM CDT
Astronomical Twilight 5:08 AM CDT 8:56 PM CDT
Moon 9:10 PM CDT (8/23) 9:10 AM CDT (8/23)
Length of Visible Light 13h 49m
Length of Day
13h 00m
Waning Gibbous, 91% of the Moon is Illuminated
Aug 23
Waning Gibbous
Aug 28
Last Quarter
Sep 5
New
Sep 12
First Quarter
Sep 19
Full

Hourly Weather History & Observations

Time (CDT) Temp. Heat Index Dew Point Humidity Pressure Visibility Wind Dir Wind Speed Gust Speed Precip Events Conditions
12:53 AM 82.9 °F 90.8 °F 75.9 °F 79% 29.99 in 10.0 mi East 5.8 mph - N/A   Partly Cloudy
1:53 AM 82.0 °F 89.4 °F 75.9 °F 82% 29.97 in 10.0 mi East 6.9 mph - N/A   Clear
2:53 AM 82.0 °F 90.2 °F 77.0 °F 85% 29.95 in 10.0 mi ENE 10.4 mph - N/A   Clear
3:53 AM 82.0 °F 90.2 °F 77.0 °F 85% 29.95 in 10.0 mi ENE 11.5 mph - N/A   Clear
4:53 AM 81.0 °F 87.3 °F 75.9 °F 85% 29.94 in 10.0 mi ENE 9.2 mph - N/A   Clear
5:53 AM 80.1 °F 85.4 °F 75.9 °F 87% 29.95 in 10.0 mi ENE 11.5 mph - N/A   Clear
6:53 AM 81.0 °F 87.3 °F 75.9 °F 85% 29.96 in 10.0 mi NE 12.7 mph - N/A   Clear
7:53 AM 81.0 °F 87.3 °F 75.9 °F 85% 29.97 in 10.0 mi NE 12.7 mph - N/A   Partly Cloudy
8:53 AM 82.0 °F 89.4 °F 75.9 °F 82% 29.98 in 10.0 mi NNE 12.7 mph - N/A   Partly Cloudy
9:53 AM 82.9 °F 90.8 °F 75.9 °F 79% 29.99 in 10.0 mi NE 12.7 mph - N/A   Scattered Clouds
10:53 AM 84.9 °F 93.3 °F 75.0 °F 72% 29.99 in 10.0 mi NE 13.8 mph - N/A   Scattered Clouds
11:53 AM 87.1 °F 95.4 °F 73.9 °F 65% 29.98 in 10.0 mi NE 13.8 mph - N/A   Mostly Cloudy
12:53 PM 86.0 °F 95.1 °F 75.0 °F 70% 29.96 in 10.0 mi NE 12.7 mph - 0.00 in Rain Rain
1:53 PM 86.0 °F 95.1 °F 75.0 °F 70% 29.96 in 10.0 mi East 18.4 mph - 0.01 in   Mostly Cloudy
2:00 PM 86.0 °F 95.1 °F 75.2 °F 70% 29.98 in 10.0 mi East 19.6 mph 25.3 mph N/A   Scattered Clouds
2:53 PM 86.0 °F 93.8 °F 73.9 °F 67% 29.95 in 10.0 mi East 15.0 mph - N/A   Mostly Cloudy
3:49 PM 84.2 °F 90.9 °F 73.4 °F 70% 29.97 in 10.0 mi East 16.1 mph - N/A   Mostly Cloudy
3:53 PM 84.9 °F 92.1 °F 73.9 °F 69% 29.95 in 10.0 mi East 13.8 mph - N/A   Mostly Cloudy
4:53 PM 84.0 °F 91.2 °F 73.9 °F 72% 29.94 in 10.0 mi East 17.3 mph 23.0 mph N/A   Mostly Cloudy
5:02 PM 84.2 °F 90.9 °F 73.4 °F 70% 29.96 in 10.0 mi East 15.0 mph 23.0 mph N/A   Scattered Clouds
5:53 PM 84.0 °F 89.0 °F 71.1 °F 65% 29.94 in 10.0 mi ESE 17.3 mph - N/A   Clear
6:53 PM 82.9 °F 88.0 °F 72.0 °F 69% 29.92 in 10.0 mi ESE 16.1 mph - N/A   Partly Cloudy
7:53 PM 82.0 °F 86.7 °F 72.0 °F 71% 29.93 in 10.0 mi East 11.5 mph - N/A   Partly Cloudy
8:53 PM 82.0 °F 87.4 °F 73.0 °F 74% 29.96 in 10.0 mi East 9.2 mph - N/A   Partly Cloudy
9:53 PM 81.0 °F 85.8 °F 73.0 °F 77% 29.98 in 10.0 mi East 10.4 mph - N/A   Scattered Clouds
10:53 PM 81.0 °F 85.8 °F 73.0 °F 77% 29.99 in 10.0 mi ESE 8.1 mph - N/A   Partly Cloudy
11:53 PM 81.0 °F 85.2 °F 72.0 °F 74% 29.99 in 10.0 mi East 6.9 mph - N/A   Clear